XSN16L LEMD-LKPR

Flight info

Callsign XSN16L
Flight time 2h 32m
Altitude 30000
Route PINAR N870 SEGRE N871 TOPTU DCT TOU DCT GAI DCT MEN DCT NINUN DCT LATAM DCT ETREK DCT LTP DCT SOPLO DCT OMASI DCT KINNI DCT SOSAL DCT KORED DCT BERSU DCT DITON DCT DEGES DCT GAMSA DCT KONIN DCT MEBEK DCT NENUM Z39 DOLUP DCT APRAQ
Aircraft B462/M-SDFGIRWY/LB1

Departure

Time 2026-05-07 08:16
Airport Adolfo Suárez Madrid–Barajas Airport (LEMD)

Arrival

Time 2026-05-07 10:49
Airport Václav Havel Airport Prague (LKPR)
Time Latitude Longitude Altitude Speed Heading
2026-05-07 07:57 40.47746 -3.57351 2002 ft 0 kts 255°
2026-05-07 08:07 40.47746 -3.57352 2002 ft 1 kts 255°
2026-05-07 08:07 40.47744 -3.57364 2000 ft 2 kts 254°
2026-05-07 08:08 40.47736 -3.57403 2002 ft 6 kts 266°
2026-05-07 08:08 40.47766 -3.57458 2002 ft 9 kts 320°
2026-05-07 08:08 40.47830 -3.57481 2005 ft 12 kts 30°
2026-05-07 08:08 40.47904 -3.57406 2002 ft 16 kts 348°
2026-05-07 08:09 40.48004 -3.57500 2000 ft 19 kts 323°
2026-05-07 08:09 40.48116 -3.57611 1998 ft 21 kts 321°
2026-05-07 08:09 40.48236 -3.57737 1995 ft 23 kts 321°
2026-05-07 08:09 40.48370 -3.57869 1991 ft 25 kts 326°
2026-05-07 08:10 40.48509 -3.57982 1998 ft 21 kts 327°
2026-05-07 08:10 40.48629 -3.58050 2002 ft 19 kts 358°
2026-05-07 08:10 40.48759 -3.58050 2002 ft 19 kts
2026-05-07 08:10 40.48857 -3.57989 2000 ft 17 kts 86°
2026-05-07 08:11 40.48858 -3.57817 1994 ft 21 kts 89°
2026-05-07 08:11 40.48861 -3.57617 1990 ft 23 kts 89°
2026-05-07 08:11 40.48861 -3.57406 1986 ft 24 kts 91°
2026-05-07 08:11 40.48861 -3.57179 1982 ft 26 kts 89°
2026-05-07 08:12 40.48864 -3.56939 1978 ft 27 kts 90°
2026-05-07 08:12 40.48864 -3.56687 1974 ft 28 kts 90°
2026-05-07 08:12 40.48866 -3.56422 1966 ft 30 kts 89°
2026-05-07 08:12 40.48964 -3.56243 1961 ft 29 kts 359°
2026-05-07 08:13 40.49167 -3.56246 1961 ft 29 kts
2026-05-07 08:13 40.49365 -3.56247 1961 ft 28 kts 359°
2026-05-07 08:13 40.49560 -3.56251 1961 ft 27 kts 359°
2026-05-07 08:13 40.49743 -3.56251 1961 ft 25 kts
2026-05-07 08:14 40.49910 -3.56245 1961 ft 22 kts 21°
2026-05-07 08:14 40.49942 -3.56092 1957 ft 17 kts 96°
2026-05-07 08:14 40.49976 -3.55971 1959 ft 12 kts 45°
2026-05-07 08:14 40.50038 -3.55923 1959 ft 9 kts 19°
2026-05-07 08:15 40.50060 -3.55920 1959 ft 0 kts
2026-05-07 08:15 40.50127 -3.55920 1960 ft 36 kts 360°
2026-05-07 08:15 40.50601 -3.55927 1965 ft 97 kts 360°
2026-05-07 08:16 40.51456 -3.55934 1957 ft 146 kts
2026-05-07 08:16 40.52530 -3.56097 2227 ft 161 kts 357°
2026-05-07 08:16 40.53693 -3.56211 2616 ft 174 kts 355°
2026-05-07 08:16 40.54964 -3.56312 2937 ft 194 kts 351°
2026-05-07 08:17 40.56393 -3.56513 3133 ft 223 kts 10°
2026-05-07 08:17 40.57979 -3.56030 3456 ft 245 kts 14°
2026-05-07 08:17 40.59721 -3.55541 3772 ft 266 kts 14°
2026-05-07 08:17 40.61539 -3.54965 4314 ft 271 kts 21°
2026-05-07 08:18 40.63208 -3.53859 5181 ft 267 kts 41°
2026-05-07 08:18 40.64377 -3.51967 6055 ft 266 kts 65°
2026-05-07 08:18 40.64937 -3.49656 6704 ft 272 kts 81°
2026-05-07 08:18 40.65417 -3.47192 7310 ft 286 kts 70°
2026-05-07 08:19 40.66394 -3.44841 7935 ft 297 kts 63°
2026-05-07 08:19 40.67229 -3.42334 8602 ft 305 kts 69°
2026-05-07 08:19 40.68114 -3.39700 8944 ft 323 kts 66°
2026-05-07 08:19 40.69115 -3.36995 9438 ft 330 kts 66°
2026-05-07 08:20 40.69958 -3.34171 10020 ft 333 kts 74°
2026-05-07 08:20 40.70806 -3.31317 10542 ft 338 kts 62°
2026-05-07 08:20 40.72119 -3.28730 11043 ft 340 kts 63°
2026-05-07 08:20 40.73116 -3.25895 11541 ft 342 kts 67°
2026-05-07 08:21 40.74261 -3.23142 12035 ft 345 kts 54°
2026-05-07 08:21 40.75852 -3.20748 12480 ft 347 kts 55°
2026-05-07 08:21 40.76878 -3.17891 12891 ft 346 kts 74°
2026-05-07 08:21 40.77612 -3.14854 13322 ft 349 kts 72°
2026-05-07 08:22 40.78315 -3.11826 13726 ft 350 kts 76°
2026-05-07 08:22 40.79268 -3.08870 14051 ft 355 kts 53°
2026-05-07 08:22 40.81239 -3.06896 14365 ft 358 kts 28°
2026-05-07 08:22 40.83414 -3.05288 14700 ft 360 kts 35°
2026-05-07 08:23 40.85455 -3.03339 15000 ft 363 kts 38°
2026-05-07 08:23 40.87445 -3.01291 15410 ft 362 kts 39°
2026-05-07 08:23 40.89371 -2.99133 15775 ft 364 kts 41°
2026-05-07 08:23 40.91406 -2.97191 16082 ft 367 kts 33°
2026-05-07 08:24 40.93503 -2.95243 16457 ft 366 kts 40°
2026-05-07 08:24 40.95312 -2.92936 17119 ft 357 kts 51°
2026-05-07 08:24 40.96769 -2.90288 17600 ft 354 kts 58°
2026-05-07 08:24 40.98110 -2.87507 17750 ft 363 kts 59°
2026-05-07 08:25 40.99467 -2.84673 18065 ft 365 kts 61°
2026-05-07 08:25 41.00743 -2.81764 18354 ft 367 kts 58°
2026-05-07 08:25 41.02190 -2.78963 18621 ft 369 kts 56°
2026-05-07 08:25 41.03741 -2.76294 18902 ft 372 kts 51°
2026-05-07 08:26 41.07388 -2.71371 19498 ft 376 kts 42°
2026-05-07 08:26 41.09443 -2.69208 19768 ft 378 kts 41°
2026-05-07 08:26 41.11392 -2.66847 20002 ft 380 kts 49°
2026-05-07 08:27 41.13078 -2.64135 20238 ft 382 kts 54°
2026-05-07 08:27 41.14685 -2.61315 20533 ft 383 kts 54°
2026-05-07 08:27 41.16364 -2.58562 20848 ft 385 kts 50°
2026-05-07 08:27 41.18172 -2.55920 21020 ft 389 kts 48°
2026-05-07 08:28 41.20057 -2.53331 21273 ft 390 kts 46°
2026-05-07 08:28 41.21975 -2.50764 21531 ft 392 kts 46°
2026-05-07 08:28 41.23898 -2.48191 21783 ft 394 kts 46°
2026-05-07 08:28 41.25807 -2.45566 22025 ft 395 kts 48°
2026-05-07 08:29 41.27704 -2.42975 22267 ft 397 kts 46°
2026-05-07 08:29 41.29651 -2.40301 22498 ft 398 kts 47°
2026-05-07 08:29 41.31514 -2.37634 22726 ft 399 kts 49°
2026-05-07 08:29 41.33456 -2.34977 23004 ft 399 kts 46°
2026-05-07 08:30 41.35383 -2.32338 23323 ft 397 kts 52°
2026-05-07 08:30 41.36914 -2.29253 23215 ft 405 kts 64°
2026-05-07 08:30 41.38184 -2.25852 23099 ft 414 kts 66°
2026-05-07 08:30 41.39412 -2.22377 23420 ft 412 kts 65°
2026-05-07 08:31 41.40641 -2.18984 24088 ft 398 kts 66°
2026-05-07 08:31 41.41947 -2.15808 24720 ft 388 kts 59°
2026-05-07 08:31 41.43770 -2.13135 24750 ft 396 kts 36°
2026-05-07 08:31 41.46238 -2.11533 24905 ft 396 kts 13°
2026-05-07 08:32 41.48955 -2.11026 25078 ft 395 kts
2026-05-07 08:32 41.51642 -2.10203 25206 ft 399 kts 24°
2026-05-07 08:32 41.53969 -2.08199 25361 ft 400 kts 44°
2026-05-07 08:32 41.55697 -2.05329 25530 ft 397 kts 63°
2026-05-07 08:33 41.56774 -2.01948 25674 ft 396 kts 70°
2026-05-07 08:33 41.58206 -1.98862 25791 ft 402 kts 48°
2026-05-07 08:33 41.60243 -1.96228 25944 ft 404 kts 44°
2026-05-07 08:33 41.62262 -1.93687 26109 ft 405 kts 45°
2026-05-07 08:34 41.64224 -1.90980 26274 ft 406 kts 49°
2026-05-07 08:34 41.66123 -1.88168 26432 ft 406 kts 49°
2026-05-07 08:34 41.68010 -1.85342 26595 ft 408 kts 49°
2026-05-07 08:34 41.69948 -1.82553 26751 ft 409 kts 47°
2026-05-07 08:35 41.71909 -1.79790 26905 ft 410 kts 48°
2026-05-07 08:35 41.73828 -1.76954 27060 ft 411 kts 49°
2026-05-07 08:35 41.75764 -1.74126 27175 ft 412 kts 47°
2026-05-07 08:35 41.77734 -1.71330 27355 ft 412 kts 48°
2026-05-07 08:36 41.79633 -1.68496 27501 ft 413 kts 49°
2026-05-07 08:36 41.81579 -1.65648 27637 ft 414 kts 47°
2026-05-07 08:36 41.83550 -1.62820 27777 ft 416 kts 47°
2026-05-07 08:36 41.85532 -1.59986 27920 ft 417 kts 48°
2026-05-07 08:37 41.87465 -1.57080 28046 ft 417 kts 49°
2026-05-07 08:37 41.89431 -1.54210 28175 ft 419 kts 47°
2026-05-07 08:37 41.91428 -1.51357 28290 ft 420 kts 47°
2026-05-07 08:37 41.93402 -1.48459 28407 ft 421 kts 49°
2026-05-07 08:38 41.95358 -1.45511 28538 ft 422 kts 48°
2026-05-07 08:38 41.97355 -1.42618 28660 ft 423 kts 47°
2026-05-07 08:38 41.99365 -1.39729 28818 ft 423 kts 47°
2026-05-07 08:38 42.01353 -1.36795 28942 ft 424 kts 49°
2026-05-07 08:39 42.03317 -1.33831 29056 ft 425 kts 48°
2026-05-07 08:39 42.05321 -1.30904 29179 ft 426 kts 47°
2026-05-07 08:39 42.07337 -1.27965 29295 ft 427 kts 47°
2026-05-07 08:39 42.09359 -1.25027 29406 ft 428 kts 47°
2026-05-07 08:40 42.11330 -1.22087 29513 ft 429 kts 49°
2026-05-07 08:40 42.13320 -1.19084 29619 ft 430 kts 48°
2026-05-07 08:40 42.15348 -1.16110 29725 ft 431 kts 47°
2026-05-07 08:40 42.17379 -1.13146 29889 ft 430 kts 47°
2026-05-07 08:41 42.21399 -1.07138 29998 ft 434 kts 49°
2026-05-07 08:41 42.25493 -1.01073 30006 ft 440 kts 47°
2026-05-07 08:42 42.29665 -0.94926 30005 ft 447 kts 47°
2026-05-07 08:42 42.33108 -0.89680 30010 ft 451 kts 48°
2026-05-07 08:43 42.37357 -0.83346 30003 ft 456 kts 48°
2026-05-07 08:43 42.41635 -0.76994 29995 ft 456 kts 47°
2026-05-07 08:44 42.45893 -0.70639 29990 ft 455 kts 48°
2026-05-07 08:44 42.50100 -0.64209 29999 ft 455 kts 47°
2026-05-07 08:45 42.54342 -0.57892 30000 ft 455 kts 48°
2026-05-07 08:45 42.58567 -0.51487 30000 ft 455 kts 49°
2026-05-07 08:46 42.62778 -0.45060 30002 ft 455 kts 47°
2026-05-07 08:46 42.67033 -0.38672 30007 ft 456 kts 48°
2026-05-07 08:47 42.71270 -0.32249 29992 ft 456 kts 49°
2026-05-07 08:47 42.75452 -0.25764 30010 ft 456 kts 48°
2026-05-07 08:48 42.79667 -0.19381 30007 ft 455 kts 48°
2026-05-07 08:48 42.83681 -0.12717 30008 ft 455 kts 52°
2026-05-07 08:49 42.87675 -0.06026 29997 ft 455 kts 50°
2026-05-07 08:49 42.91725 0.00600 30000 ft 455 kts 50°
2026-05-07 08:50 42.95678 0.07339 29997 ft 454 kts 50°
2026-05-07 08:50 42.99685 0.14009 29999 ft 454 kts 50°
2026-05-07 08:51 43.03703 0.20661 30015 ft 454 kts 50°
2026-05-07 08:51 43.07645 0.27403 30007 ft 454 kts 50°
2026-05-07 08:52 43.11647 0.34075 30008 ft 454 kts 50°
2026-05-07 08:52 43.15599 0.40817 29999 ft 454 kts 51°
2026-05-07 08:53 43.19538 0.47505 30015 ft 453 kts 50°
2026-05-07 08:53 43.23532 0.54203 30018 ft 454 kts 50°
2026-05-07 08:54 43.27467 0.60964 30018 ft 453 kts 51°
2026-05-07 08:54 43.31422 0.67705 30015 ft 453 kts 50°
2026-05-07 08:55 43.35412 0.74424 30019 ft 453 kts 51°
2026-05-07 08:55 43.39307 0.81243 30016 ft 453 kts 51°
2026-05-07 08:56 43.43265 0.87994 30035 ft 453 kts 50°
2026-05-07 08:56 43.47233 0.94731 30022 ft 453 kts 51°
2026-05-07 08:57 43.51118 1.01517 30026 ft 453 kts 51°
2026-05-07 08:57 43.55080 1.08287 30023 ft 453 kts 51°
2026-05-07 08:58 43.58977 1.15122 30010 ft 453 kts 51°
2026-05-07 08:58 43.62950 1.21952 30056 ft 453 kts 51°
2026-05-07 08:59 43.66810 1.28771 30050 ft 453 kts 51°
2026-05-07 08:59 43.70660 1.35658 30049 ft 453 kts 54°
2026-05-07 09:00 43.74598 1.42406 30046 ft 450 kts 36°
2026-05-07 09:00 43.77340 1.44329 30235 ft 437 kts 21°
2026-05-07 09:00 43.80001 1.46335 30302 ft 439 kts 32°
2026-05-07 09:01 43.82415 1.48939 30194 ft 443 kts 47°
2026-05-07 09:01 43.84237 1.52380 30143 ft 444 kts 64°
2026-05-07 09:01 43.85338 1.56365 30091 ft 444 kts 77°
2026-05-07 09:01 43.85972 1.60548 30071 ft 443 kts 82°
2026-05-07 09:02 43.87485 1.68800 30049 ft 444 kts 64°
2026-05-07 09:02 43.90565 1.76203 30039 ft 444 kts 50°
2026-05-07 09:03 43.95110 1.81935 30037 ft 441 kts 34°
2026-05-07 09:03 43.99889 1.87339 29794 ft 448 kts 42°
2026-05-07 09:04 44.03872 1.93985 30120 ft 441 kts 57°
2026-05-07 09:04 44.05386 1.97641 30422 ft 435 kts 64°
2026-05-07 09:04 44.06589 2.01508 30421 ft 436 kts 70°
2026-05-07 09:05 44.08742 2.09395 30427 ft 437 kts 65°
2026-05-07 09:05 44.10278 2.13036 30433 ft 436 kts 53°
2026-05-07 09:05 44.12087 2.16358 30436 ft 437 kts 52°
2026-05-07 09:06 44.15704 2.23198 30430 ft 439 kts 54°
2026-05-07 09:06 44.19111 2.30316 30347 ft 443 kts 55°
2026-05-07 09:07 44.22652 2.37399 30271 ft 447 kts 54°
2026-05-07 09:07 44.26133 2.44637 30181 ft 451 kts 54°
2026-05-07 09:08 44.29707 2.51795 30106 ft 454 kts 54°
2026-05-07 09:08 44.33221 2.59136 30057 ft 455 kts 54°
2026-05-07 09:09 44.36828 2.66383 30049 ft 455 kts 54°
2026-05-07 09:09 44.40338 2.73759 30049 ft 455 kts 55°
2026-05-07 09:10 44.43924 2.81044 30039 ft 455 kts 54°
2026-05-07 09:10 44.47425 2.88419 30030 ft 455 kts 55°
2026-05-07 09:11 44.51009 2.95716 30024 ft 455 kts 54°
2026-05-07 09:11 44.54511 3.03098 30024 ft 455 kts 55°
2026-05-07 09:12 44.58056 3.10448 30030 ft 454 kts 53°
2026-05-07 09:12 44.61545 3.17788 30015 ft 454 kts 57°
2026-05-07 09:13 44.64542 3.25620 30015 ft 454 kts 60°
2026-05-07 09:13 44.67711 3.33286 30016 ft 453 kts 59°
2026-05-07 09:14 44.70775 3.41037 30026 ft 453 kts 60°
2026-05-07 09:14 44.73838 3.48794 30031 ft 453 kts 58°
2026-05-07 09:15 44.76922 3.56448 30020 ft 453 kts 59°
2026-05-07 09:15 44.79958 3.64222 30018 ft 453 kts 60°
2026-05-07 09:16 44.83058 3.71933 30017 ft 452 kts 59°
2026-05-07 09:16 44.86101 3.79696 30024 ft 452 kts 60°
2026-05-07 09:17 44.89129 3.87479 30020 ft 452 kts 59°
2026-05-07 09:17 44.92184 3.95229 30020 ft 452 kts 59°
2026-05-07 09:18 44.95219 4.02999 30035 ft 452 kts 59°
2026-05-07 09:18 44.98220 4.10734 30036 ft 452 kts 59°
2026-05-07 09:19 45.01261 4.18510 30041 ft 452 kts 59°
2026-05-07 09:19 45.04300 4.26287 30032 ft 452 kts 59°
2026-05-07 09:20 45.07300 4.34106 30036 ft 452 kts 60°
2026-05-07 09:20 45.10321 4.41909 30033 ft 452 kts 59°
2026-05-07 09:21 45.13320 4.49747 30039 ft 452 kts 59°
2026-05-07 09:21 45.16329 4.57576 30026 ft 452 kts 59°
2026-05-07 09:22 45.19348 4.65401 30011 ft 452 kts 59°
2026-05-07 09:22 45.22317 4.73192 30024 ft 452 kts 60°
2026-05-07 09:23 45.25286 4.81049 30025 ft 452 kts 60°
2026-05-07 09:23 45.28257 4.88926 30047 ft 452 kts 60°
2026-05-07 09:24 45.31223 4.96802 30025 ft 452 kts 60°
2026-05-07 09:24 45.34216 5.04674 30032 ft 452 kts 59°
2026-05-07 09:25 45.37200 5.12547 30027 ft 452 kts 60°
2026-05-07 09:25 45.40142 5.20390 30036 ft 453 kts 60°
2026-05-07 09:26 45.43108 5.28316 30023 ft 453 kts 60°
2026-05-07 09:26 45.46077 5.36256 30032 ft 454 kts 60°
2026-05-07 09:27 45.49039 5.44197 30027 ft 453 kts 58°
2026-05-07 09:28 45.53824 5.53944 30020 ft 450 kts 50°
2026-05-07 09:28 45.57968 5.62517 30018 ft 451 kts 53°
2026-05-07 09:29 45.61549 5.69879 30025 ft 451 kts 52°
2026-05-07 09:29 45.64571 5.76035 30031 ft 451 kts 52°
2026-05-07 09:30 45.68152 5.83343 30040 ft 452 kts 52°
2026-05-07 09:30 45.71715 5.90755 30026 ft 452 kts 52°
2026-05-07 09:31 45.75305 5.98152 30022 ft 452 kts 52°
2026-05-07 09:31 45.78856 6.05599 30025 ft 452 kts 52°
2026-05-07 09:32 45.82442 6.13025 30038 ft 453 kts 53°
2026-05-07 09:32 45.85998 6.20483 30029 ft 453 kts 53°
2026-05-07 09:33 45.89544 6.27961 30039 ft 453 kts 53°
2026-05-07 09:33 45.93066 6.35401 30020 ft 453 kts 53°
2026-05-07 09:34 45.96616 6.42877 30010 ft 452 kts 53°
2026-05-07 09:34 46.00165 6.50332 30020 ft 451 kts 53°
2026-05-07 09:35 46.03661 6.57759 30018 ft 446 kts 54°
2026-05-07 09:35 46.07129 6.65171 30021 ft 445 kts 54°
2026-05-07 09:36 46.10590 6.72549 30024 ft 444 kts 54°
2026-05-07 09:36 46.14048 6.79917 30038 ft 443 kts 53°
2026-05-07 09:37 46.17505 6.87262 30027 ft 442 kts 54°
2026-05-07 09:37 46.20898 6.94575 30035 ft 441 kts 55°
2026-05-07 09:38 46.24304 7.01946 30028 ft 440 kts 55°
2026-05-07 09:38 46.27707 7.09269 30034 ft 439 kts 54°
2026-05-07 09:39 46.31093 7.16607 30025 ft 438 kts 55°
2026-05-07 09:39 46.34462 7.23956 30047 ft 437 kts 55°
2026-05-07 09:40 46.37828 7.31277 30033 ft 432 kts 55°
2026-05-07 09:40 46.41065 7.38347 30030 ft 423 kts 55°
2026-05-07 09:41 46.44317 7.45455 30018 ft 422 kts 55°
2026-05-07 09:41 46.47557 7.52566 30012 ft 422 kts 55°
2026-05-07 09:42 46.50790 7.59667 30021 ft 421 kts 55°
2026-05-07 09:42 46.54015 7.66767 30018 ft 421 kts 55°
2026-05-07 09:43 46.57239 7.73870 30018 ft 421 kts 55°
2026-05-07 09:43 46.60437 7.80922 30024 ft 420 kts 55°
2026-05-07 09:44 46.63657 7.88029 30022 ft 420 kts 55°
2026-05-07 09:44 46.66874 7.95141 30003 ft 420 kts 55°
2026-05-07 09:45 46.70080 8.02278 30031 ft 420 kts 56°
2026-05-07 09:45 46.73243 8.09381 30032 ft 420 kts 56°
2026-05-07 09:46 46.76427 8.16525 30024 ft 420 kts 55°
2026-05-07 09:46 46.79601 8.23681 30042 ft 420 kts 55°
2026-05-07 09:47 46.82776 8.30838 30070 ft 420 kts 56°
2026-05-07 09:47 46.85965 8.38033 30052 ft 421 kts 56°
2026-05-07 09:48 46.89151 8.45219 30047 ft 421 kts 55°
2026-05-07 09:48 46.92320 8.52418 30031 ft 420 kts 56°
2026-05-07 09:49 46.95449 8.59572 30049 ft 420 kts 56°
2026-05-07 09:49 46.98598 8.66760 30058 ft 419 kts 55°
2026-05-07 09:50 47.01744 8.73942 30049 ft 418 kts 55°
2026-05-07 09:50 47.04867 8.81128 30056 ft 418 kts 56°
2026-05-07 09:51 47.07975 8.88326 30055 ft 417 kts 56°
2026-05-07 09:51 47.11069 8.95502 30051 ft 416 kts 56°
2026-05-07 09:52 47.14157 9.02676 30093 ft 416 kts 56°
2026-05-07 09:52 47.17261 9.09875 30086 ft 417 kts 56°
2026-05-07 09:53 47.20338 9.17038 30049 ft 417 kts 56°
2026-05-07 09:53 47.23445 9.24251 30057 ft 417 kts 54°
2026-05-07 09:54 47.26540 9.31452 30047 ft 416 kts 54°
2026-05-07 09:54 47.29612 9.38664 30042 ft 415 kts 56°
2026-05-07 09:55 47.32670 9.45866 30037 ft 414 kts 56°
2026-05-07 09:55 47.35726 9.53050 30038 ft 413 kts 56°
2026-05-07 09:56 47.38775 9.60254 30051 ft 413 kts 56°
2026-05-07 09:56 47.41687 9.67585 30059 ft 415 kts 64°
2026-05-07 09:57 47.43733 9.75589 30067 ft 418 kts 68°
2026-05-07 09:57 47.45767 9.83631 30047 ft 418 kts 65°
2026-05-07 09:58 47.47983 9.91570 30043 ft 418 kts 66°
2026-05-07 09:58 47.50087 9.99534 30048 ft 419 kts 67°
2026-05-07 09:59 47.52188 10.07564 30047 ft 419 kts 68°
2026-05-07 09:59 47.54342 10.15611 30034 ft 420 kts 67°
2026-05-07 10:00 47.56481 10.23665 30048 ft 421 kts 67°
2026-05-07 10:00 47.58610 10.31737 30038 ft 421 kts 67°
2026-05-07 10:01 47.60735 10.39844 30030 ft 422 kts 66°
2026-05-07 10:01 47.62856 10.47952 30016 ft 422 kts 67°
2026-05-07 10:02 47.64966 10.56012 30009 ft 422 kts 69°
2026-05-07 10:02 47.67064 10.64204 30012 ft 422 kts 70°
2026-05-07 10:03 47.69183 10.72329 30014 ft 422 kts 69°
2026-05-07 10:03 47.71284 10.80417 30021 ft 423 kts 70°
2026-05-07 10:04 47.73385 10.88597 30010 ft 424 kts 69°
2026-05-07 10:04 47.75455 10.96788 30007 ft 424 kts 70°
2026-05-07 10:05 47.77564 11.04984 29993 ft 424 kts 70°
2026-05-07 10:05 47.79633 11.13192 30016 ft 424 kts 71°
2026-05-07 10:06 47.81719 11.21415 30030 ft 425 kts 70°
2026-05-07 10:06 47.83830 11.29667 30019 ft 427 kts 71°
2026-05-07 10:07 47.86145 11.37727 30025 ft 428 kts 54°
2026-05-07 10:07 47.88137 11.41004 30038 ft 427 kts 42°
2026-05-07 10:07 47.90335 11.43981 30025 ft 427 kts 41°
2026-05-07 10:08 47.94713 11.49993 30013 ft 428 kts 45°
2026-05-07 10:08 47.98897 11.56308 30000 ft 427 kts 44°
2026-05-07 10:09 48.03166 11.62486 29999 ft 427 kts 44°
2026-05-07 10:09 48.07379 11.68741 30008 ft 427 kts 45°
2026-05-07 10:10 48.11626 11.74960 30005 ft 427 kts 44°
2026-05-07 10:10 48.15827 11.81234 30025 ft 427 kts 45°
2026-05-07 10:11 48.20075 11.87462 30009 ft 427 kts 44°
2026-05-07 10:11 48.24231 11.93749 30009 ft 427 kts 45°
2026-05-07 10:12 48.28479 11.99984 30025 ft 428 kts 45°
2026-05-07 10:12 48.32673 12.06350 30015 ft 429 kts 45°
2026-05-07 10:13 48.36944 12.12650 29969 ft 431 kts 46°
2026-05-07 10:13 48.41156 12.19075 29993 ft 431 kts 47°
2026-05-07 10:14 48.45411 12.25456 30007 ft 432 kts 46°
2026-05-07 10:14 48.49700 12.31847 30000 ft 434 kts 48°
2026-05-07 10:15 48.53215 12.37256 30001 ft 435 kts 47°
2026-05-07 10:15 48.58218 12.44766 29994 ft 436 kts 48°
2026-05-07 10:16 48.62485 12.51321 30010 ft 438 kts 47°
2026-05-07 10:16 48.66081 12.56746 29999 ft 440 kts 49°
2026-05-07 10:17 48.70354 12.63387 29991 ft 441 kts 47°
2026-05-07 10:17 48.72502 12.66650 29774 ft 433 kts 47°
2026-05-07 10:17 48.74622 12.69837 29332 ft 426 kts 47°
2026-05-07 10:17 48.76699 12.73007 28889 ft 419 kts 49°
2026-05-07 10:18 48.78697 12.76179 28458 ft 413 kts 48°
2026-05-07 10:18 48.80699 12.79257 28061 ft 407 kts 47°
2026-05-07 10:18 48.82697 12.82274 27663 ft 402 kts 47°
2026-05-07 10:18 48.84658 12.85255 27273 ft 396 kts 48°
2026-05-07 10:19 48.86547 12.88258 26884 ft 391 kts 49°
2026-05-07 10:19 48.88433 12.91207 26492 ft 386 kts 48°
2026-05-07 10:19 48.90307 12.94105 26100 ft 382 kts 47°
2026-05-07 10:19 48.92160 12.96959 25719 ft 377 kts 47°
2026-05-07 10:20 48.93992 12.99789 25342 ft 373 kts 47°
2026-05-07 10:20 48.95802 13.02591 24967 ft 369 kts 47°
2026-05-07 10:20 48.97592 13.05371 24597 ft 366 kts 47°
2026-05-07 10:20 48.99365 13.08125 24227 ft 362 kts 47°
2026-05-07 10:21 49.01121 13.10847 23865 ft 358 kts 47°
2026-05-07 10:21 49.02844 13.13508 23510 ft 355 kts 46°
2026-05-07 10:21 49.04561 13.16190 23084 ft 352 kts 48°
2026-05-07 10:21 49.06241 13.18882 22674 ft 349 kts 47°
2026-05-07 10:22 49.07920 13.21537 22242 ft 346 kts 47°
2026-05-07 10:22 49.09591 13.24176 21830 ft 344 kts 47°
2026-05-07 10:22 49.11257 13.26774 21439 ft 341 kts 47°
2026-05-07 10:22 49.12925 13.29346 21048 ft 340 kts 47°
2026-05-07 10:23 49.14576 13.31905 20648 ft 337 kts 47°
2026-05-07 10:23 49.16208 13.34473 20263 ft 336 kts 47°
2026-05-07 10:23 49.17808 13.37003 19891 ft 334 kts 47°
2026-05-07 10:23 49.19420 13.39552 19508 ft 332 kts 47°
2026-05-07 10:24 49.21028 13.42087 19134 ft 331 kts 46°
2026-05-07 10:24 49.22630 13.44607 18768 ft 329 kts 47°
2026-05-07 10:24 49.24226 13.47112 18412 ft 328 kts 48°
2026-05-07 10:24 49.25816 13.49614 18017 ft 326 kts 49°
2026-05-07 10:25 49.27357 13.52147 17608 ft 325 kts 48°
2026-05-07 10:25 49.28918 13.54645 17203 ft 324 kts 47°
2026-05-07 10:25 49.30482 13.57121 16786 ft 324 kts 46°
2026-05-07 10:25 49.32053 13.59599 16387 ft 323 kts 46°
2026-05-07 10:26 49.33621 13.62076 15991 ft 323 kts 47°
2026-05-07 10:26 49.35184 13.64556 15603 ft 322 kts 46°
2026-05-07 10:26 49.36740 13.67036 15229 ft 322 kts 46°
2026-05-07 10:26 49.38291 13.69510 14864 ft 322 kts 47°
2026-05-07 10:27 49.39840 13.71980 14500 ft 321 kts 46°
2026-05-07 10:27 49.41381 13.74456 14129 ft 320 kts 47°
2026-05-07 10:27 49.42922 13.76930 13772 ft 320 kts 46°
2026-05-07 10:27 49.44466 13.79388 13369 ft 320 kts 46°
2026-05-07 10:28 49.45997 13.81805 12993 ft 319 kts 46°
2026-05-07 10:28 49.47547 13.84260 12618 ft 319 kts 46°
2026-05-07 10:28 49.49080 13.86725 12245 ft 319 kts 46°
2026-05-07 10:28 49.50612 13.89187 11862 ft 318 kts 47°
2026-05-07 10:29 49.52114 13.91685 11489 ft 318 kts 46°
2026-05-07 10:29 49.53638 13.94153 11110 ft 317 kts 46°
2026-05-07 10:29 49.55159 13.96611 10739 ft 317 kts 46°
2026-05-07 10:30 49.58205 14.01510 10015 ft 316 kts 45°
2026-05-07 10:30 49.59729 14.03950 9634 ft 315 kts 45°
2026-05-07 10:30 49.61223 14.06358 9225 ft 315 kts 45°
2026-05-07 10:30 49.62735 14.08790 8834 ft 314 kts 45°
2026-05-07 10:31 49.64251 14.11266 8440 ft 312 kts 44°
2026-05-07 10:31 49.65981 14.13109 8071 ft 305 kts 17°
2026-05-07 10:31 49.68021 14.13709 7804 ft 295 kts
2026-05-07 10:31 49.70051 14.14060 7513 ft 293 kts
2026-05-07 10:32 49.72063 14.14533 7235 ft 291 kts
2026-05-07 10:32 49.74052 14.15092 6968 ft 291 kts
2026-05-07 10:32 49.76022 14.15799 6713 ft 290 kts 11°
2026-05-07 10:32 49.77991 14.16462 6445 ft 288 kts
2026-05-07 10:33 49.79957 14.17025 6183 ft 287 kts
2026-05-07 10:33 49.81914 14.17632 5896 ft 287 kts
2026-05-07 10:33 49.83846 14.18248 5619 ft 286 kts
2026-05-07 10:33 49.85777 14.19010 5332 ft 289 kts 21°
2026-05-07 10:34 49.87360 14.20937 5139 ft 294 kts 52°
2026-05-07 10:34 49.88213 14.23760 5034 ft 288 kts 73°
2026-05-07 10:34 49.88840 14.26661 5004 ft 280 kts 67°
2026-05-07 10:34 49.89614 14.29401 4968 ft 274 kts 65°
2026-05-07 10:35 49.90412 14.32053 4943 ft 269 kts 62°
2026-05-07 10:35 49.91282 14.34589 4936 ft 264 kts 60°
2026-05-07 10:35 49.92126 14.37096 4930 ft 261 kts 63°
2026-05-07 10:35 49.92551 14.39781 4939 ft 256 kts 94°
2026-05-07 10:36 49.92043 14.42351 4965 ft 247 kts 127°
2026-05-07 10:36 49.91035 14.44458 4999 ft 242 kts 132°
2026-05-07 10:36 49.89993 14.46487 4984 ft 239 kts 133°
2026-05-07 10:36 49.88943 14.48478 4966 ft 237 kts 133°
2026-05-07 10:37 49.87894 14.50432 4955 ft 235 kts 134°
2026-05-07 10:37 49.86844 14.52353 4977 ft 233 kts 135°
2026-05-07 10:37 49.85841 14.54322 4973 ft 232 kts 129°
2026-05-07 10:37 49.84904 14.56358 4989 ft 231 kts 129°
2026-05-07 10:38 49.83949 14.58358 4999 ft 231 kts 130°
2026-05-07 10:38 49.82963 14.60321 4996 ft 230 kts 131°
2026-05-07 10:38 49.81982 14.62279 4996 ft 230 kts 131°
2026-05-07 10:38 49.81016 14.64260 4997 ft 230 kts 131°
2026-05-07 10:39 49.80057 14.66202 4993 ft 229 kts 130°
2026-05-07 10:39 49.79173 14.68247 4985 ft 232 kts 114°
2026-05-07 10:39 49.79035 14.70736 4899 ft 239 kts 75°
2026-05-07 10:39 49.79818 14.72980 4803 ft 240 kts 43°
2026-05-07 10:40 49.81079 14.74675 4724 ft 239 kts 29°
2026-05-07 10:40 49.82587 14.75650 4657 ft 234 kts 13°
2026-05-07 10:40 49.84166 14.76283 4557 ft 231 kts 359°
2026-05-07 10:40 49.85667 14.75758 4471 ft 219 kts 321°
2026-05-07 10:41 49.86703 14.74166 4380 ft 212 kts 304°
2026-05-07 10:41 49.87643 14.72393 4294 ft 213 kts 304°
2026-05-07 10:41 49.88553 14.70572 4210 ft 214 kts 303°
2026-05-07 10:41 49.89442 14.68707 4119 ft 215 kts 302°
2026-05-07 10:42 49.90329 14.66832 4045 ft 216 kts 302°
2026-05-07 10:42 49.91209 14.64954 4025 ft 214 kts 301°
2026-05-07 10:42 49.92085 14.63100 4022 ft 212 kts 302°
2026-05-07 10:42 49.92963 14.61267 4010 ft 211 kts 302°
2026-05-07 10:43 49.93840 14.59453 4004 ft 209 kts 303°
2026-05-07 10:43 49.94712 14.57655 4018 ft 208 kts 302°
2026-05-07 10:43 49.95584 14.55872 4055 ft 207 kts 302°
2026-05-07 10:43 49.96463 14.54089 4110 ft 209 kts 303°
2026-05-07 10:44 49.97343 14.52276 4099 ft 211 kts 303°
2026-05-07 10:44 49.98228 14.50448 4058 ft 212 kts 303°
2026-05-07 10:44 49.99122 14.48634 4040 ft 211 kts 304°
2026-05-07 10:44 49.99992 14.46844 4027 ft 210 kts 303°
2026-05-07 10:45 50.00867 14.45044 4006 ft 208 kts 303°
2026-05-07 10:45 50.01764 14.43199 3673 ft 217 kts 303°
2026-05-07 10:45 50.02681 14.41305 3375 ft 221 kts 303°
2026-05-07 10:45 50.03596 14.39407 3059 ft 213 kts 303°
2026-05-07 10:46 50.04466 14.37655 2780 ft 195 kts 302°
2026-05-07 10:46 50.05233 14.36082 2557 ft 169 kts 301°
2026-05-07 10:46 50.05886 14.34729 2371 ft 145 kts 300°
2026-05-07 10:46 50.06455 14.33545 2145 ft 129 kts 300°
2026-05-07 10:47 50.06959 14.32507 1953 ft 114 kts 300°
2026-05-07 10:47 50.07435 14.31556 1831 ft 110 kts 299°
2026-05-07 10:47 50.07905 14.30585 1701 ft 118 kts 299°
2026-05-07 10:47 50.08409 14.29506 1544 ft 127 kts 297°
2026-05-07 10:48 50.08941 14.28385 1286 ft 127 kts 298°
2026-05-07 10:48 50.09437 14.27319 1209 ft 114 kts 302°
2026-05-07 10:48 50.09848 14.26454 1203 ft 86 kts 309°
2026-05-07 10:48 50.10179 14.25819 1187 ft 54 kts 305°
2026-05-07 10:49 50.10334 14.25670 1185 ft 10 kts 346°
2026-05-07 10:49 50.10341 14.25668 1185 ft 0 kts 348°
2026-05-07 10:51 50.10350 14.25665 1184 ft 4 kts 348°
2026-05-07 10:51 50.10399 14.25656 1183 ft 10 kts
2026-05-07 10:51 50.10476 14.25685 1179 ft 10 kts 60°
2026-05-07 10:52 50.10493 14.25802 1176 ft 13 kts 80°
2026-05-07 10:52 50.10520 14.25951 1173 ft 16 kts 55°
2026-05-07 10:52 50.10615 14.26059 1172 ft 17 kts 32°
2026-05-07 10:52 50.10718 14.26163 1172 ft 18 kts 34°
2026-05-07 10:53 50.10808 14.26272 1173 ft 15 kts 64°
2026-05-07 10:53 50.10779 14.26398 1169 ft 11 kts 121°
2026-05-07 10:53 50.10776 14.26460 1173 ft 2 kts 60°
2026-05-07 10:53 50.10785 14.26485 1172 ft 4 kts 50°
2026-05-07 10:54 50.10813 14.26518 1173 ft 3 kts 33°
2026-05-07 10:54 50.10818 14.26522 1173 ft 2 kts 34°
2026-05-07 10:54 50.10823 14.26528 1173 ft 0 kts 34°